GW5356 Weather Reports


time (UTC)temp
C
wind
direction
speed
KPH
gust
KPH
rain 1hr
cm
rain 24hr
cm
rain mn
cm
humidity
%
barometer
mb
20260906071600 23 90 0.0 1.6 0.00 1.19 0.00 79 1011.6
20260906070104 22 0 0.0 0.0 0.00 1.19 0.00 81 1012.0
20260906064601 22 0 0.0 0.0 0.00 1.19 0.00 82 1012.3
20260906063101 22 0 0.0 0.0 0.00 1.19 0.00 84 1012.5
20260906061601 22 0 0.0 0.0 0.00 1.19 0.00 85 1012.8
20260906060106 22 74 1.6 3.2 0.00 1.19 0.00 87 1013.0
20260906054610 22 76 1.6 3.2 0.00 1.19 0.00 88 1012.9
20260906053101 22 92 1.6 3.2 0.00 1.19 0.00 89 1013.0
20260906051606 22 68 1.6 3.2 0.00 1.19 0.00 86 1013.2
20260906050108 22 92 1.6 3.2 0.00 1.19 0.00 86 1013.1
20260906044607 22 79 1.6 3.2 0.00 1.19 0.00 86 1013.2
20260906043103 22 96 0.0 1.6 0.00 1.19 0.00 86 1013.3
20260906041607 22 0 0.0 0.0 0.00 1.19 0.00 86 1013.4
20260906040108 23 0 0.0 1.6 0.00 1.19 0.00 85 1013.5
20260906034605 23 96 0.0 3.2 0.00 1.19 1.19 85 1013.4
20260906033101 23 98 3.2 4.8 0.00 1.19 1.19 84 1013.5
20260906031605 23 82 1.6 3.2 0.00 1.19 1.19 85 1013.5
20260906030104 23 0 0.0 1.6 0.00 1.19 1.19 86 1013.5
20260906024603 23 84 1.6 3.2 0.00 1.19 1.19 87 1013.4
20260906023058 23 83 3.2 6.4 0.00 1.19 1.19 88 1013.4
20260906021601 23 101 3.2 4.8 0.00 1.19 1.19 87 1013.2
20260906020100 23 109 1.6 4.8 0.00 1.19 1.19 87 1013.2
20260906014649 24 104 1.6 3.2 0.00 1.19 1.19 85 1013.0
20260906013105 24 113 0.0 1.6 0.00 1.19 1.19 85 1013.1
20260906011606 24 130 0.0 1.6 0.00 1.19 1.19 84 1012.9
20260906004615 24 0 0.0 1.6 0.00 1.19 1.19 84 1012.8
20260906003115 25 145 0.0 1.6 0.00 1.19 1.19 83 1012.4
20260906001603 25 0 0.0 1.6 0.00 1.19 1.19 79 1012.0
20260905234612 26 89 0.0 1.6 0.00 1.19 1.19 75 1011.7
20260905233103 27 0 0.0 1.6 0.00 1.19 1.19 72 1011.6
20260905231600 27 105 0.0 3.2 0.00 1.19 1.19 72 1011.6
20260905230110 27 87 1.6 6.4 0.00 1.19 1.19 71 1011.6
20260905224614 27 125 3.2 6.4 0.00 1.19 1.19 70 1011.5
20260905223107 28 87 3.2 4.8 0.00 1.19 1.19 68 1011.8
20260905221617 28 77 0.0 4.8 0.00 1.19 1.19 69 1011.6
20260905220111 28 0 0.0 3.2 0.00 1.19 1.19 70 1011.6
20260905214603 27 80 1.6 4.8 0.00 1.19 1.19 67 1011.9
20260905213106 27 327 0.0 3.2 0.00 1.19 1.19 69 1012.3
20260905211602 27 23 1.6 6.4 0.00 1.19 1.19 70 1012.2
20260905210107 27 19 1.6 4.8 0.00 1.19 1.19 75 1012.1
20260905204600 26 20 1.6 3.2 0.00 1.19 1.19 79 1012.1
20260905203104 26 15 0.0 3.2 0.00 1.19 1.19 82 1012.2
20260905201615 26 346 0.0 4.8 0.00 1.19 1.19 80 1012.5
20260905194600 26 221 0.0 1.6 0.00 1.19 1.19 83 1012.8
20260905193114 25 75 0.0 1.6 0.00 1.19 1.19 82 1012.5
20260905191603 25 73 1.6 4.8 0.00 1.19 1.19 83 1012.7
20260905190108 25 75 1.6 4.8 0.00 1.19 1.19 83 1012.2
20260905184605 24 221 0.0 6.4 0.03 1.19 1.19 87 1011.7
20260905183103 23 0 0.0 4.8 0.71 1.19 1.19 90 1012.4
20260905181612 22 0 0.0 1.6 1.19 1.19 1.19 88 1013.0
20260905180104 22 0 1.6 6.4 1.19 1.19 1.19 85 1013.3
20260905174606 23 215 6.4 22.5 1.17 1.17 1.17 79 1014.6
20260905173100 24 20 4.8 30.6 0.48 0.48 0.48 75 1015.1
20260905171604 33 76 4.8 14.5 0.00 0.00 0.00 53 1013.6
20260905170106 33 217 4.8 12.9 0.00 0.00 0.00 53 1013.7
20260905164603 33 79 3.2 9.7 0.00 0.00 0.00 51 1013.9
20260905163059 33 10 0.0 4.8 0.00 0.00 0.00 52 1014.0
20260905161604 33 0 0.0 4.8 0.00 0.00 0.00 53 1014.1
20260905154619 33 30 0.0 4.8 0.00 0.00 0.00 55 1014.6
20260905153059 33 129 3.2 8.0 0.00 0.00 0.00 56 1014.4
20260905151605 32 243 0.0 8.0 0.00 0.00 0.00 59 1014.2
20260905144600 32 65 0.0 4.8 0.00 0.00 0.00 63 1014.5
20260905143100 31 0 1.6 4.8 0.00 0.00 0.00 63 1014.5
20260905141605 30 134 3.2 4.8 0.00 0.00 0.00 64 1014.4
20260905140105 30 0 0.0 3.2 0.00 0.00 0.00 66 1014.4
20260905134600 28 0 1.6 3.2 0.00 0.00 0.00 71 1014.4
20260905133101 28 96 0.0 3.2 0.00 0.00 0.00 70 1014.6
20260905131609 27 0 0.0 0.0 0.00 0.00 0.00 73 1014.7
20260905124605 26 0 0.0 0.0 0.00 0.00 0.00 77 1014.8
20260905123105 25 0 0.0 4.8 0.00 0.00 0.00 80 1014.7
20260905121603 23 70 1.6 4.8 0.00 0.00 0.00 83 1014.5
20260905120100 23 0 0.0 1.6 0.00 0.00 0.00 85 1014.3
20260905114600 22 0 0.0 0.0 0.00 0.00 0.00 86 1014.3
20260905113104 22 0 0.0 0.0 0.00 0.00 0.00 86 1014.3
20260905111610 23 0 0.0 0.0 0.00 0.00 0.00 84 1014.0
20260905110101 23 94 1.6 3.2 0.00 0.00 0.00 84 1013.9
20260905104615 22 0 0.0 3.2 0.00 0.00 0.00 86 1013.7
20260905103105 22 0 0.0 3.2 0.00 0.00 0.00 86 1013.7
20260905101604 22 114 0.0 3.2 0.00 0.00 0.00 86 1013.5
20260905100107 22 0 0.0 0.0 0.00 0.00 0.00 86 1013.5
20260905094602 22 0 0.0 0.0 0.00 0.00 0.00 86 1013.4
20260905093104 22 0 0.0 0.0 0.00 0.00 0.00 86 1013.4
20260905091636 22 0 0.0 0.0 0.00 0.00 0.00 85 1013.4
20260905090059 23 0 0.0 0.0 0.00 0.00 0.00 84 1013.5
20260905084613 23 91 1.6 4.8 0.00 0.00 0.00 84 1013.6
20260905083101 23 96 0.0 1.6 0.00 0.00 0.00 83 1013.7
20260905081602 23 0 0.0 1.6 0.00 0.00 0.00 82 1013.9
20260905080108 23 0 0.0 3.2 0.00 0.00 0.00 83 1014.0
20260905074616 23 0 0.0 0.0 0.00 0.00 0.00 82 1014.2
20260905073103 23 0 0.0 0.0 0.00 0.00 0.00 82 1014.1